Time,TemperatureF,DewpointF,PressureIn,WindDirection,WindDirectionDegrees,WindSpeedMPH,WindSpeedGustMPH,Humidity,HourlyPrecipIn,Conditions,Clouds,dailyrainin,SoftwareType,DateUTC
2013-02-23 00:00:00,10.0,10.0,30.22,SW,225,0.0,0.0,100,0.00,,,-99.99,Weather View 32 v60,2013-02-23 06:00:00,
2013-02-23 00:15:00,9.0,9.0,30.22,SW,225,0.0,0.0,100,0.00,,,-99.99,Weather View 32 v60,2013-02-23 06:15:00,
2013-02-23 00:30:00,9.0,9.0,30.22,SW,225,0.0,0.0,100,0.00,,,-99.99,Weather View 32 v60,2013-02-23 06:30:00,
2013-02-23 00:45:00,8.0,8.0,30.22,SW,225,0.0,0.0,100,0.00,,,-99.99,Weather View 32 v60,2013-02-23 06:45:00,
2013-02-23 01:00:00,8.0,8.0,30.22,SW,225,0.0,0.0,100,0.00,,,-99.99,Weather View 32 v60,2013-02-23 07:00:00,
2013-02-23 01:15:00,7.0,7.0,30.22,South,180,0.0,0.0,100,0.00,,,-99.99,Weather View 32 v60,2013-02-23 07:15:00,
2013-02-23 01:30:00,7.0,7.0,30.21,South,180,0.0,0.0,100,0.00,,,-99.99,Weather View 32 v60,2013-02-23 07:30:00,
2013-02-23 01:46:00,5.0,5.0,30.22,East,90,0.0,0.0,100,0.00,,,-99.99,Weather View 32 v60,2013-02-23 07:46:00,
2013-02-23 02:00:00,5.0,5.0,30.21,East,90,0.0,0.0,100,0.00,,,-99.99,Weather View 32 v60,2013-02-23 08:00:00,
2013-02-23 02:15:00,4.0,4.0,30.21,East,90,0.0,0.0,100,0.00,,,-99.99,Weather View 32 v60,2013-02-23 08:15:00,
2013-02-23 02:30:00,4.0,4.0,30.21,East,90,0.0,0.0,100,0.00,,,-99.99,Weather View 32 v60,2013-02-23 08:30:00,
2013-02-23 02:45:00,3.0,3.0,30.22,SW,225,0.0,0.0,100,0.00,,,-99.99,Weather View 32 v60,2013-02-23 08:45:00,
2013-02-23 03:00:00,3.0,3.0,30.21,West,270,0.0,0.0,100,0.00,,,-99.99,Weather View 32 v60,2013-02-23 09:00:00,
2013-02-23 03:15:00,4.0,4.0,30.20,West,270,0.0,0.0,100,0.00,,,-99.99,Weather View 32 v60,2013-02-23 09:15:00,
2013-02-23 03:30:00,3.0,3.0,30.20,West,270,0.0,0.0,100,0.00,,,-99.99,Weather View 32 v60,2013-02-23 09:30:00,
2013-02-23 03:45:00,2.0,2.0,30.21,West,270,0.0,0.0,100,0.00,,,-99.99,Weather View 32 v60,2013-02-23 09:45:00,
2013-02-23 04:00:00,1.0,1.0,30.20,West,270,0.0,0.0,100,0.00,,,-99.99,Weather View 32 v60,2013-02-23 10:00:00,
2013-02-23 04:15:00,1.0,1.0,30.20,West,270,0.0,0.0,100,0.00,,,-99.99,Weather View 32 v60,2013-02-23 10:15:00,
2013-02-23 04:30:00,0.0,0.0,30.20,West,270,0.0,0.0,100,0.00,,,-99.99,Weather View 32 v60,2013-02-23 10:30:00,
2013-02-23 04:45:00,0.0,0.0,30.20,West,270,0.0,0.0,100,0.00,,,-99.99,Weather View 32 v60,2013-02-23 10:45:00,
2013-02-23 05:00:00,1.0,1.0,30.20,West,270,0.0,0.0,100,0.00,,,-99.99,Weather View 32 v60,2013-02-23 11:00:00,
2013-02-23 05:15:00,-1.0,-1.0,30.20,ENE,67,0.0,0.0,100,0.00,,,-99.99,Weather View 32 v60,2013-02-23 11:15:00,
2013-02-23 05:30:00,-2.0,-2.0,30.21,ENE,67,0.0,0.0,100,0.00,,,-99.99,Weather View 32 v60,2013-02-23 11:30:00,
2013-02-23 05:45:00,-2.0,-2.0,30.21,ENE,67,0.0,0.0,100,0.00,,,-99.99,Weather View 32 v60,2013-02-23 11:45:00,
2013-02-23 06:00:00,-3.0,-3.0,30.21,ENE,67,0.0,0.0,100,0.00,,,-99.99,Weather View 32 v60,2013-02-23 12:00:00,
2013-02-23 06:15:00,-1.0,-1.0,30.21,ENE,67,0.0,0.0,100,0.00,,,-99.99,Weather View 32 v60,2013-02-23 12:15:00,
2013-02-23 06:30:00,-1.0,-1.0,30.20,ENE,67,0.0,0.0,100,0.00,,,-99.99,Weather View 32 v60,2013-02-23 12:30:00,
2013-02-23 06:45:00,-2.0,-2.0,30.20,ENE,67,0.0,0.0,100,0.00,,,-99.99,Weather View 32 v60,2013-02-23 12:45:00,
2013-02-23 07:00:00,-2.0,-2.0,30.21,ENE,67,0.0,0.0,100,0.00,,,-99.99,Weather View 32 v60,2013-02-23 13:00:00,
2013-02-23 07:15:00,-3.0,-3.0,30.21,ENE,67,0.0,0.0,100,0.00,,,-99.99,Weather View 32 v60,2013-02-23 13:15:00,
2013-02-23 07:30:00,-3.0,-3.0,30.20,ENE,67,0.0,0.0,100,0.00,,,-99.99,Weather View 32 v60,2013-02-23 13:30:00,
2013-02-23 07:45:00,-2.0,-2.0,30.20,ENE,67,0.0,0.0,100,0.00,,,-99.99,Weather View 32 v60,2013-02-23 13:45:00,
2013-02-23 08:00:00,-1.0,-1.0,30.19,ENE,67,0.0,0.0,100,0.00,,,-99.99,Weather View 32 v60,2013-02-23 14:00:00,
2013-02-23 08:15:00,-1.0,-1.0,30.19,ENE,67,0.0,0.0,100,0.00,,,-99.99,Weather View 32 v60,2013-02-23 14:15:00,
2013-02-23 08:30:00,1.0,1.0,30.18,ENE,67,0.0,0.0,100,0.00,,,-99.99,Weather View 32 v60,2013-02-23 14:30:00,
2013-02-23 08:45:00,6.0,6.0,30.17,ENE,67,0.0,0.0,100,0.00,,,-99.99,Weather View 32 v60,2013-02-23 14:45:00,
2013-02-23 09:00:00,10.0,10.0,30.16,ENE,67,0.0,0.0,100,0.00,,,-99.99,Weather View 32 v60,2013-02-23 15:00:00,
2013-02-23 09:15:00,12.0,11.8,30.15,ENE,67,0.0,0.0,99,0.00,,,-99.99,Weather View 32 v60,2013-02-23 15:15:00,
2013-02-23 09:30:00,13.0,11.1,30.14,East,90,0.0,0.0,92,0.00,,,-99.99,Weather View 32 v60,2013-02-23 15:30:00,
2013-02-23 09:45:00,15.0,12.9,30.14,East,90,0.0,0.0,91,0.00,,,-99.99,Weather View 32 v60,2013-02-23 15:45:00,
2013-02-23 09:50:00,15.0,12.9,30.14,East,90,0.0,0.0,91,0.00,,,-99.99,Weather View 32 v60,2013-02-23 15:50:00,
2013-02-23 10:00:00,19.0,16.8,30.13,SW,225,1.0,1.0,91,0.00,,,-99.99,Weather View 32 v60,2013-02-23 16:00:00,
2013-02-23 10:15:00,21.0,16.1,30.12,WSW,247,0.0,4.0,81,0.00,,,-99.99,Weather View 32 v60,2013-02-23 16:15:00,
2013-02-23 10:30:00,22.0,15.0,30.11,SE,135,0.0,6.0,74,0.00,,,-99.99,Weather View 32 v60,2013-02-23 16:30:00,
2013-02-23 10:45:00,21.0,14.6,30.12,WSW,247,0.0,6.0,76,0.00,,,-99.99,Weather View 32 v60,2013-02-23 16:45:00,
2013-02-23 10:51:00,21.0,14.6,30.12,WSW,247,0.0,6.0,76,0.00,,,-99.99,Weather View 32 v60,2013-02-23 16:51:00,
2013-02-23 11:00:00,24.0,15.3,30.11,SSW,202,0.0,6.0,69,0.00,,,-99.99,Weather View 32 v60,2013-02-23 17:00:00,
2013-02-23 11:15:00,24.0,15.0,30.10,WSW,247,0.0,6.0,68,0.00,,,-99.99,Weather View 32 v60,2013-02-23 17:15:00,
2013-02-23 11:30:00,27.0,17.5,30.09,SSW,202,0.0,6.0,67,0.00,,,-99.99,Weather View 32 v60,2013-02-23 17:30:00,
2013-02-23 11:45:00,27.0,15.7,30.08,SSW,202,0.0,6.0,62,0.00,,,-99.99,Weather View 32 v60,2013-02-23 17:45:00,
2013-02-23 11:52:00,27.0,15.7,30.08,SSW,202,0.0,6.0,62,0.00,,,-99.99,Weather View 32 v60,2013-02-23 17:52:00,
2013-02-23 12:00:00,29.0,16.1,30.08,West,270,0.0,6.0,58,0.00,,,-99.99,Weather View 32 v60,2013-02-23 18:00:00,
2013-02-23 12:15:00,27.0,15.7,30.08,SSE,157,0.0,6.0,62,0.00,,,-99.99,Weather View 32 v60,2013-02-23 18:15:00,
2013-02-23 12:30:00,27.0,16.8,30.08,SSE,157,0.0,4.0,65,0.00,,,-99.99,Weather View 32 v60,2013-02-23 18:30:00,
2013-02-23 12:45:00,27.0,17.2,30.08,East,90,0.0,3.0,66,0.00,,,-99.99,Weather View 32 v60,2013-02-23 18:45:00,
2013-02-23 12:52:00,27.0,17.2,30.08,East,90,0.0,3.0,66,0.00,,,-99.99,Weather View 32 v60,2013-02-23 18:52:00,
2013-02-23 13:00:00,28.0,17.4,30.07,SSE,157,0.0,2.0,64,0.00,,,-99.99,Weather View 32 v60,2013-02-23 19:00:00,
2013-02-23 13:15:00,27.0,17.8,30.07,SSE,157,0.0,0.0,68,0.00,,,-99.99,Weather View 32 v60,2013-02-23 19:15:00,
2013-02-23 13:30:00,27.0,17.5,30.06,East,90,0.0,5.0,67,0.00,,,-99.99,Weather View 32 v60,2013-02-23 19:30:00,
2013-02-23 13:45:00,26.0,17.9,30.07,ESE,112,0.0,6.0,71,0.00,,,-99.99,Weather View 32 v60,2013-02-23 19:45:00,
2013-02-23 13:53:00,26.0,17.9,30.07,ESE,112,0.0,6.0,71,0.00,,,-99.99,Weather View 32 v60,2013-02-23 19:53:00,
2013-02-23 14:00:00,30.0,18.6,30.05,WSW,247,0.0,6.0,62,0.00,,,-99.99,Weather View 32 v60,2013-02-23 20:00:00,
2013-02-23 14:15:00,31.0,18.7,30.04,SSE,157,2.0,6.0,60,0.00,,,-99.99,Weather View 32 v60,2013-02-23 20:15:00,
2013-02-23 14:30:00,32.0,19.7,30.04,SSW,202,0.0,6.0,60,0.00,,,-99.99,Weather View 32 v60,2013-02-23 20:30:00,
2013-02-23 14:45:00,31.0,19.5,30.04,SSE,157,0.0,6.0,62,0.00,,,-99.99,Weather View 32 v60,2013-02-23 20:45:00,
2013-02-23 14:53:00,31.0,19.5,30.04,SSE,157,0.0,6.0,62,0.00,,,-99.99,Weather View 32 v60,2013-02-23 20:53:00,
2013-02-23 15:00:00,30.0,18.9,30.04,SW,225,0.0,6.0,63,0.00,,,-99.99,Weather View 32 v60,2013-02-23 21:00:00,
2013-02-23 15:15:00,33.0,22.9,30.03,NNE,22,0.0,6.0,66,0.01,,,-99.99,Weather View 32 v60,2013-02-23 21:15:00,
2013-02-23 15:30:00,29.0,19.4,30.04,ESE,112,0.0,7.0,67,0.01,,,-99.99,Weather View 32 v60,2013-02-23 21:30:00,
2013-02-23 15:45:00,27.0,18.9,30.05,ESE,112,4.0,7.0,71,0.01,,,-99.99,Weather View 32 v60,2013-02-23 21:45:00,
2013-02-23 15:54:00,27.0,18.9,30.05,ESE,112,4.0,7.0,71,0.01,,,-99.99,Weather View 32 v60,2013-02-23 21:54:00,
2013-02-23 16:00:00,26.0,18.9,30.05,ESE,112,0.0,7.0,74,0.01,,,-99.99,Weather View 32 v60,2013-02-23 22:00:00,
2013-02-23 16:15:00,26.0,19.5,30.05,ESE,112,6.0,8.0,76,0.00,,,-99.99,Weather View 32 v60,2013-02-23 22:15:00,
2013-02-23 16:30:00,26.0,19.5,30.04,East,90,8.0,8.0,76,0.00,,,-99.99,Weather View 32 v60,2013-02-23 22:30:00,
2013-02-23 16:45:00,25.0,19.4,30.05,South,180,0.0,8.0,79,0.00,,,-99.99,Weather View 32 v60,2013-02-23 22:45:00,
2013-02-23 17:00:00,25.0,20.0,30.05,ESE,112,0.0,8.0,81,0.00,,,-99.99,Weather View 32 v60,2013-02-23 23:00:00,
2013-02-23 17:15:00,25.0,20.3,30.04,SSE,157,0.0,8.0,82,0.00,,,-99.99,Weather View 32 v60,2013-02-23 23:15:00,
2013-02-23 17:30:00,25.0,20.6,30.05,SSE,157,0.0,8.0,83,0.00,,,-99.99,Weather View 32 v60,2013-02-23 23:30:00,
2013-02-23 17:45:00,24.0,19.9,30.06,ESE,112,0.0,8.0,84,0.00,,,-99.99,Weather View 32 v60,2013-02-23 23:45:00,
2013-02-23 18:00:00,23.0,19.7,30.05,ESE,112,0.0,8.0,87,0.00,,,-99.99,Weather View 32 v60,2013-02-24 00:00:00,
2013-02-23 18:15:00,23.0,20.2,30.06,ESE,112,0.0,6.0,89,0.00,,,-99.99,Weather View 32 v60,2013-02-24 00:15:00,
2013-02-23 18:30:00,22.0,19.5,30.07,ESE,112,0.0,1.0,90,0.00,,,-99.99,Weather View 32 v60,2013-02-24 00:30:00,
2013-02-23 18:45:00,21.0,19.0,30.07,NE,45,0.0,1.0,92,0.00,,,-99.99,Weather View 32 v60,2013-02-24 00:45:00,
2013-02-23 19:00:00,20.0,18.3,30.08,East,90,0.0,0.0,93,0.00,,,-99.99,Weather View 32 v60,2013-02-24 01:00:00,
2013-02-23 19:15:00,19.0,17.8,30.09,East,90,0.0,0.0,95,0.00,,,-99.99,Weather View 32 v60,2013-02-24 01:15:00,
2013-02-23 19:30:00,17.0,16.3,30.10,ENE,67,0.0,0.0,97,0.00,,,-99.99,Weather View 32 v60,2013-02-24 01:30:00,
2013-02-23 19:45:00,16.0,15.5,30.10,ENE,67,0.0,0.0,98,0.00,,,-99.99,Weather View 32 v60,2013-02-24 01:45:00,
2013-02-23 20:00:00,15.0,14.5,30.11,ENE,67,0.0,0.0,98,0.00,,,-99.99,Weather View 32 v60,2013-02-24 02:00:00,
2013-02-23 20:15:00,14.0,14.0,30.11,ENE,67,0.0,0.0,100,0.00,,,-99.99,Weather View 32 v60,2013-02-24 02:15:00,
2013-02-23 20:30:00,13.0,13.0,30.11,ENE,67,0.0,0.0,100,0.00,,,-99.99,Weather View 32 v60,2013-02-24 02:30:00,
2013-02-23 20:45:00,13.0,13.0,30.12,ENE,67,0.0,0.0,100,0.00,,,-99.99,Weather View 32 v60,2013-02-24 02:45:00,
2013-02-23 21:00:00,12.0,12.0,30.12,ENE,67,0.0,0.0,100,0.00,,,-99.99,Weather View 32 v60,2013-02-24 03:00:00,
2013-02-23 21:15:00,11.0,11.0,30.12,ENE,67,0.0,0.0,100,0.00,,,-99.99,Weather View 32 v60,2013-02-24 03:15:00,
2013-02-23 21:30:00,10.0,10.0,30.13,ENE,67,0.0,0.0,100,0.00,,,-99.99,Weather View 32 v60,2013-02-24 03:30:00,
2013-02-23 21:45:00,10.0,10.0,30.13,East,90,0.0,0.0,100,0.00,,,-99.99,Weather View 32 v60,2013-02-24 03:45:00,
2013-02-23 22:00:00,9.0,9.0,30.14,ENE,67,0.0,0.0,100,0.00,,,-99.99,Weather View 32 v60,2013-02-24 04:00:00,
2013-02-23 22:15:00,10.0,10.0,30.14,ENE,67,0.0,0.0,100,0.00,,,-99.99,Weather View 32 v60,2013-02-24 04:15:00,
2013-02-23 22:30:00,9.0,9.0,30.14,ENE,67,0.0,0.0,100,0.00,,,-99.99,Weather View 32 v60,2013-02-24 04:30:00,
2013-02-23 22:45:00,9.0,9.0,30.14,East,90,0.0,0.0,100,0.00,,,-99.99,Weather View 32 v60,2013-02-24 04:45:00,
2013-02-23 23:00:00,8.0,8.0,30.15,ENE,67,0.0,0.0,100,0.00,,,-99.99,Weather View 32 v60,2013-02-24 05:00:00,
2013-02-23 23:15:00,8.0,8.0,30.14,ENE,67,0.0,0.0,100,0.00,,,-99.99,Weather View 32 v60,2013-02-24 05:15:00,
2013-02-23 23:30:00,8.0,8.0,30.14,ENE,67,0.0,0.0,100,0.00,,,-99.99,Weather View 32 v60,2013-02-24 05:30:00,
2013-02-23 23:45:00,7.0,7.0,30.14,ENE,67,0.0,0.0,100,0.00,,,-99.99,Weather View 32 v60,2013-02-24 05:45:00,